Total_Precipitation_Accumulation
0.00 0.00 0.00 0.00 0.00 0.00 0.00 0.00 0.00 0.00 0.00 0.00 0.00 0.00 0.02 0.14 0.04 0.02 0.03 0.01 0.01 0.00 0.01 0.04 0.07 0.08 0.06 0.12 0.37 0.48 0.71 0.88 0.60 0.38 0.33 0.37 0.42 0.50 0.78 0.77 0.49 0.55 0.68 0.50
0.02 0.01 0.00 0.00 0.00 0.00 0.00 0.00 0.00 0.00 0.00 0.00 0.00 0.00 0.00 0.02 0.00 0.00 0.00 0.00 0.00 0.00 0.00 0.01 0.03 0.05 0.08 0.16 0.38 0.47 0.32 0.27 0.28 0.28 0.16 0.12 0.17 0.29 0.63 0.92 0.61 0.63 0.70 0.60
0.03 0.02 0.00 0.00 0.00 0.00 0.00 0.00 0.00 0.00 0.00 0.00 0.00 0.00 0.00 0.00 0.02 0.07 0.01 0.00 0.00 0.00 0.02 0.02 0.04 0.04 0.06 0.08 0.12 0.24 0.13 0.07 0.07 0.10 0.13 0.11 0.16 0.32 1.03 1.33 0.99 0.70 0.70 0.65
0.09 0.00 0.01 0.01 0.00 0.00 0.00 0.00 0.00 0.00 0.00 0.00 0.00 0.01 0.02 0.01 0.02 0.06 0.01 0.01 0.00 0.00 0.00 0.00 0.00 0.00 0.03 0.03 0.05 0.23 0.13 0.06 0.05 0.05 0.05 0.07 0.11 0.16 0.50 1.03 0.94 0.73 0.93 0.80
0.10 0.01 0.01 0.00 0.00 0.00 0.01 0.00 0.00 0.00 0.00 0.05 0.02 0.01 0.03 0.02 0.00 0.02 0.01 0.00 0.00 0.00 0.01 0.01 0.01 0.00 0.00 0.06 0.08 0.20 0.16 0.16 0.08 0.11 0.15 0.26 0.20 0.14 0.23 0.89 1.22 0.98 0.98 1.10
0.01 0.01 0.05 0.02 0.00 0.00 0.00 0.02 0.04 0.03 0.04 0.07 0.01 0.02 0.04 0.03 0.02 0.06 0.08 0.05 0.02 0.02 0.03 0.04 0.02 0.02 0.02 0.02 0.11 0.19 0.15 0.21 0.23 0.27 0.22 0.22 0.29 0.18 0.18 0.51 1.07 1.37 1.22 1.23
0.03 0.04 0.03 0.00 0.01 0.01 0.01 0.12 0.26 0.27 0.11 0.05 0.03 0.04 0.06 0.07 0.18 0.31 0.31 0.26 0.14 0.11 0.10 0.09 0.06 0.06 0.07 0.05 0.17 0.19 0.16 0.20 0.23 0.30 0.16 0.19 0.31 0.39 0.41 0.43 0.79 1.30 1.62 1.44
0.17 0.12 0.03 0.06 0.04 0.05 0.05 0.18 0.28 0.35 0.16 0.07 0.04 0.04 0.05 0.13 0.20 0.37 0.61 0.47 0.38 0.24 0.11 0.16 0.16 0.18 0.21 0.20 0.22 0.34 0.30 0.36 0.28 0.19 0.25 0.31 0.37 0.45 0.54 0.46 0.67 1.19 1.12 0.95
0.16 0.09 0.03 0.04 0.04 0.12 0.22 0.18 0.09 0.37 0.27 0.27 0.10 0.04 0.12 0.23 0.33 0.30 0.43 0.43 0.38 0.32 0.20 0.19 0.21 0.24 0.28 0.30 0.29 0.31 0.29 0.48 0.47 0.42 0.47 0.40 0.33 0.30 0.35 0.40 0.39 0.62 0.81 0.94
0.25 0.42 0.09 0.05 0.13 0.15 0.22 0.22 0.45 0.60 0.55 0.34 0.21 0.31 0.99 0.98 0.66 0.94 0.83 0.49 0.36 0.31 0.30 0.27 0.27 0.31 0.32 0.33 0.35 0.47 0.32 0.26 0.39 0.57 0.56 0.36 0.41 0.49 0.34 0.32 0.33 0.48 0.76 0.88
0.11 0.29 0.20 0.22 0.25 0.16 0.22 0.41 0.51 0.50 0.20 0.31 0.56 1.40 1.44 1.74 1.12 0.85 0.47 0.37 0.40 0.31 0.37 0.53 0.61 0.51 0.57 0.55 0.50 0.48 0.51 0.61 0.70 0.69 0.54 0.47 0.53 0.79 0.72 0.62 0.53 0.54 0.86 1.12
0.11 0.43 0.24 0.16 0.08 0.04 0.18 0.27 0.50 0.77 0.43 0.32 0.53 1.43 1.34 1.21 1.12 0.57 0.10 0.03 0.08 0.24 0.27 0.40 0.94 1.07 0.99 0.96 0.98 0.70 0.80 0.94 1.04 0.91 0.80 1.00 1.16 1.25 1.20 1.16 1.28 1.04 0.81 0.80
0.36 0.41 0.45 0.40 0.37 0.22 0.40 0.47 0.44 0.78 0.85 0.69 0.99 1.51 1.41 0.87 0.33 0.07 0.03 0.02 0.02 0.09 0.12 0.18 0.39 0.65 1.14 0.62 0.90 0.78 0.82 1.07 1.31 1.34 1.33 1.37 1.33 1.35 1.40 1.35 1.20 1.06 1.11 1.18
0.66 0.41 0.55 0.33 0.40 0.63 0.64 0.57 0.67 0.79 0.92 0.52 0.78 1.04 1.01 0.58 0.15 0.05 0.05 0.05 0.07 0.09 0.15 0.19 0.24 0.28 0.35 0.54 1.11 1.85 0.86 1.06 1.33 1.34 1.00 0.97 1.20 1.15 1.14 1.06 0.95 0.88 0.94 0.93
0.62 0.42 0.71 0.52 0.16 0.25 0.52 0.63 0.62 0.92 0.66 0.63 0.68 0.52 0.67 0.92 0.46 0.17 0.14 0.09 0.13 0.14 0.15 0.23 0.32 0.40 0.42 0.44 0.43 0.58 0.54 1.08 1.62 1.47 1.20 1.01 0.89 0.89 1.00 1.00 0.80 0.70 0.83 0.85
0.65 0.57 0.86 1.01 0.36 0.47 0.65 0.80 0.52 0.73 0.61 0.56 0.39 0.37 0.43 0.62 0.63 0.37 0.24 0.15 0.19 0.21 0.22 0.22 0.29 0.34 0.41 0.53 0.68 0.67 0.58 0.78 1.05 1.38 1.61 1.10 1.36 1.05 0.74 0.79 0.78 0.70 0.74 0.72
0.77 1.10 1.02 1.09 0.34 0.37 0.71 0.72 0.61 0.50 0.29 0.22 0.29 0.24 0.37 0.63 0.73 0.65 0.46 0.26 0.27 0.26 0.24 0.20 0.26 0.30 0.37 0.40 0.33 0.39 0.49 0.60 0.62 0.98 1.83 1.81 1.80 2.46 1.55 0.90 1.01 0.79 0.88 0.86
0.96 0.87 0.76 0.79 0.46 0.61 0.71 0.37 0.41 0.49 0.36 0.16 0.21 0.27 0.44 0.53 0.43 0.60 0.59 0.60 0.39 0.33 0.29 0.22 0.20 0.26 0.30 0.26 0.22 0.20 0.20 0.29 0.38 0.36 0.76 1.39 1.42 2.01 2.73 2.01 1.69 1.70 1.41 1.28
0.74 0.71 0.73 0.66 0.46 0.49 0.29 0.31 0.38 0.77 0.70 0.36 0.31 0.46 0.44 0.34 0.16 0.47 0.60 0.60 0.85 0.66 0.50 0.54 0.41 0.33 0.33 0.32 0.37 0.31 0.24 0.22 0.23 0.24 0.37 0.55 0.96 1.26 1.65 2.20 2.43 2.29 2.12 1.81
0.27 0.57 0.77 0.45 0.42 0.41 0.19 0.11 0.26 0.51 1.16 0.97 0.73 0.50 0.43 0.34 0.38 0.67 0.69 0.60 0.69 0.99 0.79 0.59 0.55 0.35 0.47 0.54 0.48 0.70 0.49 0.37 0.39 0.40 0.38 0.36 0.51 0.76 1.06 1.32 1.45 1.49 1.44 1.50
0.31 0.57 0.51 0.42 0.45 0.19 0.04 0.06 0.20 1.00 1.17 1.07 1.29 0.85 0.74 0.67 0.69 0.83 0.83 0.69 0.63 0.84 1.20 0.85 0.74 0.60 0.64 0.83 0.62 0.73 1.19 1.06 0.89 0.82 0.77 0.77 0.77 0.76 0.71 0.74 0.71 0.74 0.85 0.84
0.42 0.66 0.53 0.43 0.50 0.26 0.14 0.28 0.67 1.00 1.03 1.04 1.18 1.26 1.42 1.38 1.26 1.08 0.86 0.66 0.54 0.51 0.73 1.15 0.97 0.91 0.80 0.91 1.00 0.85 1.09 1.69 1.57 1.28 1.20 1.12 0.93 0.84 0.82 0.81 0.86 0.78 0.76 0.75
0.43 0.41 0.45 0.38 0.42 0.42 0.23 0.36 0.65 0.71 0.78 0.79 0.84 0.90 1.02 1.03 0.96 0.80 0.53 0.37 0.35 0.43 0.46 0.55 0.92 0.98 0.84 0.74 0.93 1.03 1.15 1.27 1.42 1.47 1.41 1.42 1.32 1.23 1.14 1.06 1.04 0.93 0.84 0.80
0.63 0.33 0.49 0.59 0.76 0.32 0.22 0.27 0.33 0.42 0.59 0.53 0.51 0.49 0.48 0.51 0.56 0.54 0.40 0.28 0.23 0.22 0.24 0.28 0.37 0.62 0.80 0.83 0.66 0.71 0.81 0.88 1.00 1.02 1.08 1.23 1.28 1.28 1.20 1.11 1.12 1.08 1.07 1.11
0.92 0.50 0.59 0.89 1.52 0.76 0.65 0.74 0.68 0.48 0.48 0.40 0.42 0.39 0.35 0.31 0.33 0.33 0.33 0.29 0.27 0.26 0.28 0.30 0.26 0.23 0.29 0.37 0.50 0.57 0.58 0.55 0.54 0.58 0.65 0.66 0.69 0.76 0.79 0.81 0.86 0.81 0.99 0.95
0.70 0.92 0.88 1.04 1.27 1.09 0.94 0.70 0.53 0.38 0.34 0.26 0.19 0.17 0.16 0.16 0.16 0.13 0.11 0.10 0.11 0.19 0.19 0.11 0.09 0.09 0.12 0.13 0.15 0.16 0.20 0.27 0.34 0.40 0.45 0.55 0.58 0.57 0.59 0.64 0.76 0.86 0.88 0.81